Regional Weather Roundup
Issued by NWS Wakefield, VA

Home | Current Version | Previous Version | Graphics & Text | Print | Product List | Glossary On
Versions: 1 2 3 4 5 6 7 8 9 10 11 12 13 14 15 16 17 18 19 20 21 22 23 24 25 26 27 28 29 30 31 32 33 34 35 36 37 38 39 40 41 42 43 44 45 46 47 48 49 50
000
ASUS41 KAKQ 212215
RWRAKQ

REGIONAL WEATHER ROUNDUP
NATIONAL WEATHER SERVICE WAKEFIELD VA
600 PM EDT SAT APR 21 2018

Note: "fair" indicates few or no clouds below 12,000 feet with no
significant weather and/or obstructions to visibility. * = Denotes
station may not report precipitation (e.g., rain,snow,etc.),
thunder or fog.

VAZ042-051-052>054-056-212300-
NORTHERN VIRGINIA

CITY           SKY/WX    TMP DP  RH WIND       PRES   REMARKS
WASH NATIONAL  PTSUNNY   60  32  34 S7        30.35S
DULLES         PTSUNNY   62  22  21 CALM      30.34S
FORT BELVOIR   FAIR      60  28  29 S5        30.34S
QUANTICO       FAIR      60  32  34 CALM      30.35F
FREDERICKSBRG* FAIR      64  28  25 NW3       30.33S
STAFFORD*      FAIR      64  27  24 N3        30.37R
WARRENTON      FAIR      62  20  19 CALM      30.34R
CULPEPER*      FAIR      62  26  25 CALM      30.35R
MANASSAS*      FAIR      62  29  28 SW6       30.35R
LEESBURG*      FAIR      61  30  31 NE5       30.35R
WINCHESTER     FAIR      57  27  30 E6        30.34S
FRONT ROYAL*   FAIR      61  27  27 NE5       30.31S
LURAY*         FAIR      64  23  20 NE3       30.31R
$$

VAZ048-049-060>072-079>083-212300-
CENTRAL AND SOUTH CENTRAL VIRGINIA

CITY           SKY/WX    TMP DP  RH WIND       PRES   REMARKS
RICHMOND       FAIR      65  27  23 CALM      30.34S
CHESTERFIELD*  FAIR      64  26  23 CALM      30.34S
PETERSBURG*    FAIR      64  24  21 CALM      30.34S
HANOVER        FAIR      64  28  25 VRB3      30.35S
TAPPAHANNOCK*  FAIR      63  33  32 E6        30.36R
QUINTON*       FAIR      63  28  26 S7        30.34S
CHARLOTTSVILLE FAIR      67  28  23 VRB3      30.32R
GORDONSVILLE*  FAIR      64  29  26 CALM      30.33R
ORANGE*        FAIR      61  32  33 CALM      30.33R
LOUISA*        FAIR      64  23  21 CALM      30.37S
BUMPASS*       FAIR      64  24  22 CALM      30.33S
FARMVILLE*     FAIR      67  25  20 SW5       30.33R
CREWE*         FAIR      65  32  28 CALM      30.33S
FORT PICKETT*  FAIR      65  29  26 CALM      30.34S
CHASE CITY*    FAIR      65  29  26 SE3       30.34S
CLARKSVILLE*   FAIR      64  32  29 E3        30.33S
SOUTH HILL*    FAIR      64  31  28 S7        30.39S
LAWRENCEVILLE* FAIR      65  28  24 CALM      30.33S
EMPORIA*       FAIR      64  32  29 SE5       30.35F
$$

VAZ088>098-212300-
SOUTHEAST VIRGINIA

CITY           SKY/WX    TMP DP  RH WIND       PRES   REMARKS
NORFOLK        FAIR      56  36  47 SE7       30.37S
VIRGINIA BEACH FAIR      52  36  54 SE7       30.38F
NORFOLK NAVAL  FAIR      55  35  47 E9G20     30.39S
WEST POINT*    FAIR      60  34  37 SE9       30.37S
SALUDA*        FAIR      53  36  52 E9        30.38S
NEWPORT NEWS   FAIR      55  36  48 NE10      30.37F
LANGLEY AFB    FAIR      54  38  55 E10       30.38S
FORT EUSTIS    FAIR      58  34  40 E7        30.34S
WILLIAMSBURG*  FAIR      63  34  34 CALM      30.37S
HR EXEC AP*    FAIR      61  37  41 E10       30.37S
FRANKLIN*      FAIR      65  30  27 CALM      30.35S
US460-WAKEFLD  FAIR      65  29  25 CALM      30.35S
$$

VAZ020-022-025-037-045-212300-
WEST CENTRAL AND SOUTHWEST VIRGINIA

CITY           SKY/WX    TMP DP  RH WIND       PRES   REMARKS
STAUNTON*      FAIR      61  30  31 E5        30.32S
WAYNESBORO*    FAIR      63  29  28 SE7       30.31S
HOT SPRINGS VA FAIR      55  15  20 S9        30.32S
LYNCHBURG      FAIR      65  26  23 SW5       30.33S
DANVILLE       FAIR      68  31  25 VRB5      30.32S
SOUTH BOSTON*  FAIR      66  23  19 CALM      30.33S
MARTINSVILLE   FAIR      67  28  23 SE5       30.33F
ROANOKE        FAIR      64  31  28 SE9       30.32S
BLACKSBURG     FAIR      65  29  26 NE5       30.33S
DUBLIN*        FAIR      67  25  20 S6        30.31S
MARION*        FAIR      66  29  24 E7        30.30S
HILLSVILLE*    FAIR      61  29  30 SE8       30.30F
RICHLANDS*     FAIR     N/A N/A N/A CALM      30.28F
WISE*          FAIR      68  30  24 E3        30.28F
ABINGDON*      FAIR      71  15  12 NW3       30.27S
$$

MDZ021>025-VAZ099-100-212300-
SOUTHERN MARYLAND AND THE DELMARVA PENINSULA

CITY           SKY/WX    TMP DP  RH WIND       PRES   REMARKS
PATUXENT RIVER FAIR      54  37  52 SE15      30.35F
BAY BRIDGE APT FAIR      57  30  35 S5        30.35S
LEONARDTOWN    FAIR      59  30  33 SW7       30.36F
DOVER          PTSUNNY   58  27  30 W7        30.34S
GEORGETOWN     FAIR      59  23  25 W9        30.35S
EASTON         MOSUNNY   59  27  29 NW7       30.39S
CAMBRIDGE      SUNNY     57  28  33 CALM      30.36S
SALISBURY      FAIR      58  27  30 W6        30.35S
TANGIER        NOT AVBL
OCEAN CITY     FAIR      49  36  61 S8        30.38S
WALLOPS ISLAND FAIR      53  38  56 S12       30.38S
ACCOMACK*      FAIR      56  28  33 NW5       30.38S
$$

NCZ012>017-030>032-212300-
NORTH CENTRAL AND EASTERN NORTH CAROLINA

CITY           SKY/WX    TMP DP  RH WIND       PRES   REMARKS
ROANOKE RAPIDS FAIR      64  32  29 CALM      30.34S
RALEIGH        FAIR      68  34  28 SE5       30.33S
ELIZABETH CITY FAIR      57  42  57 E12       30.38F
AHOSKIE*       FAIR      64  32  30 CALM      30.35S
EDENTON*       FAIR      59  46  60 E12G20    30.37S
CURRITUCK*     NOT AVBL
KILL DEVIL HLS FAIR      50  39  65 NE6       30.38F
MANTEO         FAIR      51  38  62 NE16      30.39F
CAPE HATTERAS  FAIR      57  38  48 E9        30.40R
TARBORO*       NOT AVBL
GOLDSBORO      FAIR      68  36  30 NE5       30.32S HAZE
WASHINGTON     FAIR      66  31  27 CALM      30.34S
GREENVILLE     FAIR      68  32  26 SW3       30.34S
NEW BERN       FAIR      63  40  42 SE9       30.36R
WILMINGTON     FAIR      64  36  35 SE13      30.35R
$$

VAZ048-212300-
ELSEWHERE

CITY           SKY/WX    TMP DP  RH WIND       PRES   REMARKS
HARRISBURG PA  CLOUDY    59  26  28 W3        30.32F
BALTIMORE      PTSUNNY   60  28  29 W6        30.33S
ANNAPOLIS      FAIR      56  37  49 SE9       30.35S
ANDREWS AFB    FAIR      60  24  25 NW6       30.33S
PHILADELPHIA   CLOUDY    59  25  27 W12       30.32S
HENDERSON NC   FAIR      64  27  25 CALM      30.33S
GREENSBORO     FAIR      67  32  27 CALM      30.30F
ROCKY MOUNT    FAIR      67  34  29 W5        30.34S
$$

VAZ100-212300-
MARINE

STATION/POSITION TIME  TEMP    WIND        PRES    WAVE   SWELL
                       AIR SEA DIR/SP/G            HT/PER HT/PER
                 (UTC) (F)     (DEG/KT/KT) (MB)    (FT/S) (FT/S)
BRANDYWINE LGT   2148           CALM  /  2   N/A
CAPE MAY NJ      2142   54 50  300/  4/  5 1027.3R
LEWES DE         2148   54 51  160/  7/ 10 1027.8R
15NM E FENWICK I 2150   46 47  210/ 14/ 16 1028.8S   1/14
OCEAN-CITY-INLET 2148   47 50  200/ 10/ 13 1029.2F
WACHAPREAGUE VA  2148   50 61  170/  7/ 10 1028.9F
THOMAS POINT MD  2200   52 51  180/  6/  7 1028.9R
GOOSES REEF MD   2200   53     160/ 10/ 10 1028.5
COVE POINT MD    2148   51     170/ 11/ 12 1028.6F
SOLOMONS ISLAND  2148   52 53  120/ 13/ 14 1027.5F
BISHOPS HEAD MD  2148   54 59  230/  6/  7 1028.7F
PINEY POINT MD   2136          160/ 10/ 12   N/A
POTOMAC MD       2200   53 55  140/ 10/ 12 1029.5    1/ 2
CAMBRIDGE MD     2148   57 56              1028.9F
LEWISETTA VA     2148   53 55  130/  9/ 10 1028.1F
RAPPAHANNOCK LGT 2136           30/  5/  6 1029.4F
YORK RVR RNG VA  2136   52     100/  7/  8 1029.3F
YORKTOWN VA      2136   52 56   90/ 11/ 12 1028.3F
DOMINION TERM VA 2136   52      90/ 10/ 13 1028.9R
KIPTOPEKE VA     2136      54  170/  6/  9   N/A
CAPE HENRY VA    2136   49     140/ 11/ 14   N/A
WILLOUBY STN VA  2136   50      90/ 12/ 14 1028.7F
S CRANEY ISL VA  2136   55      70/  8/ 10 1028.3F
CAPE HENRY BUOY  2200      51                N/A     2/ 6
64NM E OF VA BCH 2150   47 50   50/  4/  6 1030.3R   3/ 6   2/ 6
DUCK PIER NC     2136   49 53   60/ 12/ 13 1028.9F
44100 DUCK FRF   2145      50                N/A     2/ 5
44056 DUCK FRF   2200      52                N/A     2/ 6
OREGON INLET NC  2136   50 56   40/ 12/ 15 1028.7F
HATTERAS NC      2136   55 61   50/  7/ 11 1029.0R
DIAMOND SHLS NC  2150   57 72   40/  8/ 14 1029.6R   4/ 8   3/ 8
CAPE LOOKOUT NC  2200           90/ 12/ 13 1028.7F
$$



USA.gov is the U.S. government's official web portal to all federal, state and local government web resources and services.